Wind_Speed
21 21 21 22 22 21 22 23 23 23 24 25 26 26 26 25 24 24 24 25 25 25 24 25 25 25 25 25 26 26 26 26 27 27 27 27 27 27 27 27 27 28 29
23 23 22 23 22 22 22 23 24 24 25 26 26 26 26 25 25 25 25 25 25 25 25 25 25 25 26 26 26 27 28 28 28 27 26 27 27 28 27 27 27 27 28
21 22 21 22 22 23 23 24 24 25 26 26 27 27 26 25 26 25 26 26 26 25 26 26 26 26 27 27 28 28 28 28 28 28 27 28 28 28 28 27 27 27 28
21 23 23 22 23 23 23 24 24 25 26 27 27 27 26 25 25 25 26 27 26 25 25 26 26 26 27 27 28 28 29 29 29 29 29 29 29 29 28 28 28 28 28
21 22 23 22 22 23 24 24 24 25 27 27 26 25 24 24 25 24 25 26 25 25 25 26 26 26 26 27 27 28 28 28 28 28 28 28 29 29 29 29 29 28 28
21 22 23 23 23 23 24 23 24 24 24 24 23 23 23 23 23 23 23 23 23 24 24 25 26 26 26 26 26 27 27 27 27 27 27 27 28 28 29 29 29 29 28
20 21 22 22 22 23 23 23 23 23 22 22 22 22 22 22 23 22 21 23 23 24 24 25 25 26 25 26 26 26 25 25 26 27 27 27 26 27 28 28 28 27 27
21 21 21 21 22 22 22 21 21 21 22 21 20 20 21 22 22 22 22 23 24 25 24 25 25 24 24 25 25 24 25 25 25 26 26 26 26 26 27 28 28 27 26
21 21 20 21 21 20 20 20 20 20 21 20 21 21 21 22 23 22 22 23 24 24 23 23 22 23 23 23 24 24 25 25 25 26 26 25 25 25 25 26 26 26 26
21 20 18 17 17 18 19 19 19 19 20 20 20 21 22 23 22 22 22 22 23 23 22 22 22 22 22 22 23 24 23 24 24 25 25 24 24 24 24 24 24 24 24
19 19 19 18 18 18 19 19 19 19 19 19 20 21 21 22 22 22 21 21 22 22 22 21 21 21 21 21 22 23 22 22 22 23 22 22 21 21 21 21 21 22 22
19 18 18 19 19 19 19 19 19 19 19 19 19 19 20 21 20 20 20 21 21 21 21 20 20 21 21 21 21 21 20 20 20 20 19 18 18 18 19 18 18 18 18
17 17 18 19 18 19 19 19 18 17 17 17 17 18 18 19 18 18 19 19 19 20 20 20 20 21 20 20 19 19 19 18 18 18 17 16 16 17 16 16 16 16 17
19 17 18 18 19 19 18 17 17 17 16 16 16 17 17 17 16 17 17 17 18 19 19 20 20 20 19 18 17 17 18 17 17 17 17 16 15 14 14 15 16 16 16
19 19 18 18 18 17 16 16 16 16 16 16 16 16 16 16 15 15 15 15 17 18 18 19 19 19 18 17 16 17 18 17 17 16 15 14 13 13 14 14 14 14 15
18 18 17 17 17 16 16 15 15 15 15 15 15 15 15 15 15 14 14 15 16 16 17 17 18 17 17 16 16 16 16 15 15 15 14 14 13 13 13 13 13 13 13
16 16 17 16 16 16 15 15 15 15 15 14 14 13 13 13 13 14 14 14 15 15 16 17 17 16 16 16 15 15 15 14 15 14 14 13 13 12 12 12 12 13 13
16 16 16 16 16 15 14 14 14 14 14 13 13 12 12 12 13 13 13 14 15 15 16 16 16 16 16 15 15 15 15 15 15 15 14 13 12 12 12 12 12 12 13
15 14 14 15 15 14 14 13 13 13 13 12 11 11 11 11 12 12 13 14 14 15 15 15 16 15 15 14 15 15 15 15 15 15 14 14 13 12 13 12 12 12 12
12 12 12 12 13 12 12 11 11 11 10 10 10 9 10 10 11 11 12 12 13 14 14 14 14 15 15 15 15 15 15 15 15 15 15 14 14 14 13 13 13 12 12
12 11 11 11 11 10 11 10 9 9 8 8 9 9 9 9 9 10 11 12 13 14 14 13 13 13 14 14 15 16 16 16 16 15 15 14 14 14 14 14 13 12 13
11 10 11 11 10 10 10 9 8 7 8 8 8 8 7 8 8 9 11 12 13 14 14 13 13 13 13 14 15 16 16 17 16 16 15 14 14 14 14 14 13 13 13
10 10 10 10 9 8 8 7 7 6 6 7 6 6 6 7 7 9 10 12 13 13 13 13 14 13 14 14 15 16 16 16 16 16 16 15 15 15 15 15 15 14 13
8 8 8 7 7 6 6 6 6 5 5 5 6 6 6 7 8 9 11 12 12 13 14 14 14 15 15 16 16 17 17 17 17 17 17 17 16 16 15 15 16 16 15
6 6 6 6 5 5 5 5 5 5 4 5 6 6 6 7 9 10 11 12 13 13 14 14 14 15 16 17 17 18 18 18 18 18 18 18 17 17 17 17 17 17 17
5 5 5 4 3 4 4 4 4 4 4 5 5 6 7 8 9 10 12 12 12 13 14 14 15 16 17 17 18 18 19 19 19 19 19 19 19 18 18 18 18 18 19
Wind_Direction
271 269 275 277 279 281 283 286 289 292 293 293 293 294 295 294 291 291 290 292 293 293 292 291 291 291 291 291 291 289 288 290 290 289 285 284 283 283 282 281 279 276 275
273 276 276 278 280 283 284 286 289 291 293 294 294 295 295 293 292 290 289 291 292 293 292 292 292 293 292 290 289 288 289 289 290 289 287 285 285 283 282 282 281 279 276
273 276 277 279 281 282 283 285 288 291 292 293 295 295 293 292 292 291 290 292 292 292 291 292 292 292 292 291 290 290 289 288 288 288 287 286 285 284 282 282 281 280 278
274 276 278 279 280 281 281 283 287 290 291 293 295 294 293 293 294 294 293 293 292 291 292 292 291 291 292 293 293 293 290 289 289 287 287 287 285 283 282 281 280 280 277
274 276 278 280 280 279 280 282 286 289 292 293 292 293 298 300 299 296 297 294 293 294 297 295 293 293 293 293 294 294 293 292 291 290 288 288 286 283 281 280 279 278 278
278 278 279 279 280 281 281 281 285 287 291 293 295 297 299 301 302 299 299 297 297 298 301 300 297 296 296 296 297 298 297 296 294 292 291 290 288 285 282 280 279 277 277
279 279 279 278 279 280 281 281 284 285 289 294 296 297 298 300 302 302 301 304 303 304 303 303 300 298 297 299 300 300 300 299 297 295 293 291 289 287 284 280 279 278 277
280 279 276 277 281 283 283 283 286 289 290 292 293 296 299 301 302 303 304 305 306 307 306 305 304 302 300 301 301 302 301 300 299 297 294 292 291 288 285 281 277 276 277
280 278 277 278 281 282 284 286 289 290 289 292 294 296 298 301 302 303 305 306 308 310 310 310 308 305 304 304 304 303 302 301 300 299 296 293 291 290 287 283 279 277 277
280 278 280 281 282 284 286 289 290 293 293 293 293 296 298 300 301 302 305 308 310 312 313 312 312 311 309 309 309 309 306 304 301 299 296 294 293 293 290 287 283 280 278
279 279 281 282 283 284 286 287 288 289 291 291 294 296 298 300 299 301 304 308 311 313 313 313 315 316 316 316 314 311 308 308 306 304 299 295 293 293 292 289 284 281 280
283 282 283 283 284 286 288 287 286 288 288 290 294 296 299 301 300 301 305 309 313 314 315 315 316 316 316 316 314 314 312 312 310 308 302 299 297 296 295 293 288 284 282
288 285 287 286 286 288 289 288 287 289 290 292 295 298 301 306 307 305 307 312 315 316 317 320 319 320 319 317 316 318 319 319 318 315 311 305 302 301 297 294 292 291 291
292 288 288 287 286 288 288 287 286 287 290 292 295 300 304 308 310 311 311 315 317 318 320 321 320 322 322 320 320 322 324 321 319 318 316 313 311 309 306 302 300 298 295
293 291 291 288 288 289 289 288 287 287 288 290 294 296 303 308 310 313 315 319 321 321 321 322 323 324 327 326 325 326 326 326 324 323 321 319 318 316 312 308 307 306 303
293 292 289 291 291 288 289 288 287 287 286 289 293 298 303 307 309 313 316 321 324 325 325 325 325 326 329 330 331 331 331 330 330 331 331 328 325 320 317 317 316 317 314
289 292 292 291 291 289 290 289 287 287 286 289 294 299 302 306 310 314 321 324 325 326 326 328 328 330 331 331 332 332 333 333 332 333 332 331 331 325 323 321 318 319 316
287 290 290 291 290 289 289 289 288 288 289 291 291 294 300 307 314 317 320 322 324 324 327 331 332 333 333 333 332 333 335 337 336 335 332 329 325 326 324 324 320 320 321
288 290 291 292 291 288 289 289 288 289 292 291 294 298 302 308 315 319 322 324 327 329 331 332 333 334 335 336 335 337 338 339 339 339 335 331 330 322 322 324 321 321 322
296 298 300 298 293 289 289 288 287 288 291 294 299 303 306 311 317 321 325 329 332 334 334 335 337 337 337 338 340 340 339 338 338 339 339 334 329 328 325 323 322 320 319
301 301 304 303 298 293 291 290 293 295 295 299 300 302 306 311 317 323 327 333 338 341 341 339 340 342 343 342 342 342 342 341 340 338 336 335 330 328 329 328 322 321 320
297 299 300 299 295 293 294 291 292 296 295 300 304 303 307 312 319 326 331 337 341 342 345 346 346 347 346 346 345 344 342 342 343 342 339 338 336 333 331 330 329 322 320
297 300 299 298 295 296 299 295 294 298 302 304 306 306 309 312 319 327 332 336 338 341 345 345 345 344 343 342 343 342 341 341 342 342 341 339 337 335 332 331 329 325 320
300 302 304 303 300 297 295 294 295 299 305 310 309 309 310 317 324 328 331 336 339 341 342 343 343 342 340 340 340 339 339 339 339 338 336 335 333 332 331 329 326 321 318
312 311 309 303 297 295 292 290 293 299 307 313 321 322 325 327 329 330 333 336 338 340 341 342 342 340 340 339 339 338 337 336 335 334 334 332 329 328 328 326 323 321 318
311 313 313 313 311 317 315 308 306 306 311 315 329 334 333 331 329 330 333 336 336 338 339 340 340 339 339 338 338 337 336 334 333 332 332 330 328 326 324 323 323 321 319
Height
5842 5843 5844 5843 5843 5843 5842 5842 5841 5840 5838 5837 5835 5834 5832 5830 5828 5827 5825 5823 5821 5820 5818 5817 5815 5813 5812 5810 5808 5806 5805 5803 5802 5801 5799 5798 5797 5796 5794 5794 5793 5793 5792
5838 5838 5839 5840 5840 5839 5838 5837 5836 5836 5834 5832 5830 5829 5827 5825 5823 5822 5820 5818 5816 5815 5813 5811 5810 5808 5806 5804 5802 5800 5798 5797 5795 5793 5792 5791 5791 5789 5787 5786 5786 5785 5784
5834 5835 5835 5835 5835 5834 5834 5833 5832 5831 5829 5827 5826 5823 5822 5820 5818 5817 5815 5813 5811 5809 5808 5806 5804 5802 5800 5798 5796 5794 5792 5790 5788 5786 5785 5784 5783 5781 5780 5779 5778 5777 5777
5831 5830 5830 5830 5830 5830 5829 5828 5827 5826 5824 5823 5821 5818 5816 5815 5813 5811 5809 5807 5806 5804 5802 5799 5797 5795 5793 5791 5789 5786 5784 5783 5781 5779 5777 5776 5774 5773 5772 5771 5770 5769 5769
5827 5826 5825 5825 5825 5825 5824 5823 5822 5821 5819 5817 5816 5813 5811 5809 5807 5805 5803 5801 5799 5798 5796 5793 5791 5789 5786 5784 5782 5779 5777 5775 5773 5771 5770 5768 5766 5764 5764 5764 5763 5762 5761
5822 5821 5820 5820 5820 5819 5818 5818 5817 5816 5814 5812 5810 5808 5807 5805 5803 5801 5799 5796 5794 5792 5790 5788 5785 5783 5780 5778 5775 5773 5770 5768 5766 5764 5762 5760 5758 5757 5756 5755 5754 5754 5753
5817 5817 5815 5815 5815 5814 5813 5813 5812 5811 5809 5807 5806 5804 5802 5800 5798 5796 5794 5792 5789 5788 5785 5782 5779 5777 5774 5772 5769 5767 5764 5762 5759 5757 5755 5753 5751 5749 5748 5747 5746 5745 5745
5812 5812 5811 5810 5810 5809 5807 5806 5806 5805 5804 5802 5801 5799 5798 5796 5794 5792 5790 5788 5785 5782 5780 5777 5774 5771 5769 5766 5763 5761 5758 5755 5753 5750 5748 5746 5744 5742 5740 5739 5738 5738 5737
5807 5807 5805 5805 5805 5804 5803 5801 5801 5800 5798 5798 5796 5795 5794 5792 5790 5788 5786 5783 5780 5777 5774 5771 5769 5766 5763 5760 5757 5755 5752 5749 5746 5744 5741 5739 5737 5735 5733 5732 5731 5731 5730
5803 5802 5801 5800 5800 5799 5798 5797 5796 5795 5794 5793 5792 5791 5789 5787 5785 5783 5781 5779 5776 5773 5770 5767 5764 5761 5758 5755 5752 5749 5746 5743 5740 5737 5735 5732 5730 5728 5727 5725 5724 5724 5723
5797 5796 5796 5796 5795 5794 5793 5792 5791 5791 5790 5788 5787 5786 5785 5783 5781 5779 5777 5774 5772 5769 5766 5763 5760 5756 5753 5750 5747 5744 5741 5738 5735 5732 5729 5726 5724 5723 5721 5720 5718 5718 5717
5791 5791 5791 5790 5790 5789 5788 5787 5786 5786 5785 5784 5783 5782 5780 5779 5777 5775 5773 5770 5768 5765 5762 5759 5755 5752 5749 5746 5743 5739 5736 5733 5730 5727 5724 5722 5720 5718 5716 5715 5713 5713 5712
5786 5787 5786 5785 5784 5783 5783 5782 5781 5781 5780 5779 5779 5777 5776 5774 5773 5770 5769 5766 5764 5761 5758 5755 5752 5749 5745 5742 5739 5735 5732 5729 5726 5723 5720 5718 5716 5714 5712 5711 5709 5708 5707
5784 5783 5782 5781 5780 5779 5778 5777 5777 5776 5776 5776 5775 5774 5772 5771 5769 5767 5765 5763 5760 5758 5755 5752 5749 5745 5742 5738 5735 5732 5729 5726 5723 5720 5717 5715 5712 5711 5709 5708 5706 5705 5704
5780 5779 5778 5777 5776 5775 5774 5773 5773 5772 5772 5772 5771 5770 5769 5768 5766 5764 5762 5760 5757 5755 5752 5749 5746 5742 5739 5736 5733 5729 5726 5723 5720 5717 5714 5712 5710 5708 5707 5705 5703 5702 5700
5776 5775 5774 5773 5772 5771 5770 5769 5769 5768 5768 5768 5768 5767 5766 5765 5763 5761 5759 5757 5755 5752 5749 5746 5743 5740 5737 5734 5730 5727 5724 5721 5718 5715 5712 5710 5708 5706 5704 5702 5701 5699 5698
5773 5771 5770 5769 5768 5767 5767 5766 5765 5765 5765 5764 5764 5763 5763 5762 5760 5758 5756 5754 5752 5750 5747 5744 5741 5738 5734 5732 5729 5726 5723 5719 5716 5714 5711 5708 5706 5704 5702 5700 5699 5697 5695
5769 5768 5767 5765 5764 5763 5763 5763 5762 5762 5761 5761 5761 5760 5760 5759 5757 5756 5754 5752 5750 5747 5744 5742 5739 5736 5733 5730 5727 5724 5721 5718 5715 5712 5709 5706 5704 5702 5700 5699 5697 5695 5693
5765 5764 5762 5761 5760 5760 5760 5759 5759 5759 5759 5759 5758 5758 5757 5756 5755 5753 5751 5749 5747 5744 5742 5740 5737 5734 5731 5728 5725 5722 5719 5716 5713 5710 5707 5705 5703 5701 5698 5696 5695 5693 5692
5761 5760 5759 5757 5757 5757 5756 5757 5757 5756 5756 5756 5756 5755 5754 5754 5752 5751 5749 5747 5745 5742 5740 5738 5735 5732 5729 5726 5723 5720 5717 5714 5712 5709 5706 5703 5701 5699 5697 5695 5693 5691 5690
5759 5757 5756 5755 5754 5754 5754 5754 5754 5754 5754 5753 5753 5753 5752 5751 5750 5748 5747 5745 5743 5741 5738 5736 5733 5731 5728 5725 5722 5719 5716 5713 5710 5707 5704 5702 5699 5697 5695 5693 5691 5689 5687
5756 5755 5754 5753 5752 5752 5751 5751 5752 5752 5751 5751 5751 5750 5750 5749 5748 5747 5745 5744 5742 5739 5737 5734 5732 5730 5727 5724 5721 5718 5715 5712 5709 5706 5703 5700 5698 5695 5693 5691 5688 5686 5685
5754 5753 5752 5751 5750 5750 5750 5750 5750 5750 5750 5749 5749 5748 5748 5747 5746 5745 5744 5742 5740 5738 5736 5733 5731 5728 5726 5723 5720 5717 5714 5711 5708 5705 5702 5699 5696 5694 5691 5689 5686 5684 5682
5752 5751 5751 5749 5749 5748 5748 5749 5748 5748 5748 5748 5747 5747 5746 5746 5745 5744 5742 5741 5739 5737 5734 5732 5729 5727 5724 5721 5718 5715 5712 5709 5706 5703 5700 5697 5695 5692 5689 5686 5684 5681 5679
5751 5750 5749 5749 5748 5748 5747 5747 5747 5747 5747 5747 5746 5746 5745 5745 5744 5743 5741 5739 5737 5735 5733 5731 5728 5725 5722 5720 5716 5713 5711 5708 5705 5701 5698 5695 5693 5690 5687 5684 5681 5678 5676
5750 5749 5749 5748 5748 5747 5747 5747 5746 5746 5746 5746 5746 5745 5745 5744 5743 5742 5740 5738 5736 5734 5731 5729 5726 5723 5721 5718 5715 5711 5708 5705 5702 5699 5696 5693 5690 5687 5683 5680 5678 5675 5672